DW3693 Weather Reports


Display with metric or nautical units.
time (UTC)temp
F
wind
direction
speed
MPH
gust
MPH
rain 1hr
in
rain 24hr
in
rain mn
in
humidity
%
barometer
mb
20260902080517 60 270 2.0 6.0 0.00 0.00 0.00 76 1010.1
20260902075519 60 293 4.0 12.0 0.00 0.00 0.00 76 1010.3
20260902074516 60 270 3.0 13.0 0.00 0.00 0.00 76 1010.3
20260902073539 60 248 3.0 12.0 0.00 0.00 0.00 76 1010.2
20260902072516 61 270 6.0 15.0 0.00 0.00 0.00 76 1010.3
20260902071516 61 270 3.0 10.0 0.00 0.00 0.00 76 1010.4
20260902070516 61 270 3.0 12.0 0.00 0.00 0.00 76 1010.6
20260902065516 62 248 4.0 11.0 0.00 0.00 0.00 74 1010.7
20260902064516 62 270 4.0 12.0 0.00 0.00 0.00 72 1010.7
20260902063516 62 248 4.0 12.0 0.00 0.00 0.00 72 1010.8
20260902062518 62 270 3.0 10.0 0.00 0.00 0.00 72 1010.9
20260902061516 62 248 4.0 11.0 0.00 0.00 0.00 72 1010.8
20260902060516 63 248 3.0 15.0 0.00 0.00 0.00 72 1010.9
20260902055517 63 270 5.0 11.0 0.00 0.00 0.00 72 1010.9
20260902054516 63 248 4.0 9.0 0.00 0.00 0.00 72 1010.8
20260902053515 63 270 6.0 12.0 0.00 0.00 0.00 71 1010.8
20260902052516 63 293 4.0 13.0 0.00 0.00 0.00 70 1011.0
20260902051516 63 293 4.0 11.0 0.00 0.00 0.00 70 1011.0
20260902050516 63 270 5.0 16.0 0.00 0.00 0.00 70 1010.7
20260902045519 64 270 5.0 15.0 0.00 0.00 0.00 69 1010.7
20260902044516 64 293 4.0 11.0 0.00 0.00 0.00 69 1010.5
20260902043515 64 270 3.0 12.0 0.00 0.00 0.00 68 1010.4
20260902042516 64 270 4.0 14.0 0.00 0.00 0.00 67 1010.4
20260902041619 64 248 3.0 11.0 0.00 0.00 0.00 67 1010.2
20260902040521 64 315 4.0 11.0 0.00 0.00 0.00 66 1010.1
20260902035515 64 270 3.0 10.0 0.00 0.00 0.00 66 1010.1
20260902034546 64 248 3.0 9.0 0.00 0.00 0.00 66 1009.8
20260902033521 64 293 5.0 12.0 0.00 0.00 0.00 66 1009.6
20260902032520 64 203 1.0 4.0 0.00 0.00 0.00 68 1009.6
20260902031523 65 248 5.0 14.0 0.00 0.00 0.00 66 1009.4
20260902030521 65 270 3.0 9.0 0.00 0.00 0.00 67 1009.4
20260902025522 65 270 4.0 10.0 0.00 0.00 0.00 68 1009.7
20260902024516 65 270 6.0 13.0 0.00 0.00 0.00 68 1009.8
20260902023515 65 293 6.0 16.0 0.00 0.00 0.00 68 1009.6
20260902022546 65 225 3.0 9.0 0.00 0.00 0.00 68 1009.5
20260902021517 65 270 5.0 18.0 0.00 0.00 0.00 66 1009.6
20260902020517 65 270 6.0 15.0 0.00 0.00 0.00 66 1009.4
20260902015518 66 248 4.0 12.0 0.00 0.00 0.00 65 1009.4
20260902014517 66 293 4.0 10.0 0.00 0.00 0.00 64 1009.4
20260902013517 66 225 3.0 14.0 0.00 0.00 0.00 64 1009.6
20260902012522 67 338 3.0 10.0 0.00 0.00 0.00 63 1009.4
20260902011518 67 248 2.0 6.0 0.00 0.00 0.00 62 1009.3
20260902010517 67 270 5.0 12.0 0.00 0.00 0.00 62 1009.4
20260902005633 68 270 4.0 11.0 0.00 0.00 0.00 61 1009.1
20260902004517 68 270 5.0 12.0 0.00 0.00 0.00 61 1009.1
20260902003517 68 225 5.0 15.0 0.00 0.00 0.00 61 1009.0
20260902002522 67 315 3.0 10.0 0.00 0.00 0.00 62 1008.9
20260902001518 69 270 4.0 14.0 0.00 0.00 0.00 60 1009.1
20260902000517 68 248 6.0 16.0 0.00 0.00 0.00 60 1008.8
20260901235536 68 225 5.0 19.0 0.00 0.00 0.00 62 1009.1
20260901234517 67 293 5.0 12.0 0.00 0.00 0.00 63 1009.1
20260901233522 67 270 6.0 14.0 0.00 0.00 0.00 63 1008.9
20260901232522 68 293 7.0 17.0 0.00 0.00 0.00 62 1009.1
20260901232022 68 293 7.0 18.0 0.00 0.00 0.00 63 1008.9
20260901231023 68 293 7.0 16.0 0.00 0.00 0.00 62 1008.9
20260901230016 68 270 7.0 20.0 0.00 0.00 0.00 63 1009.0
20260901225017 68 248 6.0 16.0 0.00 0.00 0.00 62 1008.9
20260901224016 68 293 7.0 15.0 0.00 0.00 0.00 63 1009.0
20260901223016 68 270 6.0 19.0 0.00 0.00 0.00 62 1008.5
20260901222047 69 248 7.0 22.0 0.00 0.00 0.00 61 1008.5
20260901221021 67 270 10.0 29.0 0.00 0.00 0.00 64 1008.5
20260901220048 67 270 7.0 20.0 0.00 0.00 0.00 64 1008.4
20260901215016 68 270 7.0 23.0 0.00 0.00 0.00 61 1008.4
20260901214018 69 270 7.0 17.0 0.00 0.00 0.00 61 1008.4
20260901213024 69 248 5.0 15.0 0.00 0.00 0.00 60 1008.6
20260901212047 69 270 6.0 16.0 0.00 0.00 0.00 61 1008.7
20260901211022 69 270 6.0 16.0 0.00 0.00 0.00 61 1008.9
20260901210548 68 293 6.0 19.0 0.00 0.00 0.00 62 1008.8
20260901205517 69 248 5.0 15.0 0.00 0.00 0.00 60 1009.1
20260901204521 68 270 7.0 18.0 0.00 0.00 0.00 62 1009.0
20260901203516 68 248 7.0 13.0 0.00 0.00 0.00 61 1008.9
20260901202516 68 248 6.0 19.0 0.00 0.00 0.00 61 1008.7
20260901201537 69 293 6.0 16.0 0.00 0.00 0.00 60 1008.8
20260901200516 69 248 6.0 21.0 0.00 0.00 0.00 60 1008.6
20260901195516 68 270 8.0 24.0 0.00 0.00 0.00 60 1008.8
20260901194516 69 270 5.0 14.0 0.00 0.00 0.00 60 1009.0
20260901193605 68 293 7.0 18.0 0.00 0.00 0.00 61 1009.4
20260901192546 68 248 7.0 12.0 0.00 0.00 0.00 62 1009.4
20260901191516 68 270 6.0 20.0 0.00 0.00 0.00 61 1009.7
20260901190516 68 270 6.0 20.0 0.00 0.00 0.00 61 1009.6
20260901185522 68 270 5.0 17.0 0.00 0.00 0.00 63 1009.6
20260901184522 67 270 5.0 12.0 0.00 0.00 0.00 63 1009.6
20260901183516 68 293 4.0 11.0 0.00 0.00 0.00 64 1009.8
20260901182521 67 225 4.0 14.0 0.00 0.00 0.00 65 1009.8
20260901181515 66 248 6.0 19.0 0.00 0.00 0.00 66 1009.9
20260901180516 65 293 5.0 12.0 0.00 0.00 0.00 68 1010.0
20260901175521 64 270 6.0 15.0 0.00 0.00 0.00 68 1010.1
20260901174547 64 270 4.0 13.0 0.00 0.00 0.00 69 1010.0
20260901173521 64 248 5.0 13.0 0.00 0.00 0.00 70 1010.1
20260901172515 64 270 5.0 12.0 0.00 0.00 0.00 71 1010.2
20260901171521 64 270 3.0 9.0 0.00 0.00 0.00 71 1010.1
20260901170515 63 158 3.0 6.0 0.00 0.00 0.00 73 1010.2
20260901165516 63 270 4.0 10.0 0.00 0.00 0.00 73 1010.1
20260901164515 62 315 4.0 7.0 0.00 0.00 0.00 75 1010.1
20260901163515 61 270 4.0 13.0 0.00 0.00 0.00 75 1010.1
20260901162516 61 203 2.0 6.0 0.00 0.00 0.00 77 1010.0
20260901161516 61 270 4.0 11.0 0.00 0.00 0.00 77 1010.1
20260901160515 61 293 5.0 14.0 0.00 0.00 0.00 76 1009.9
20260901155536 60 180 2.0 7.0 0.00 0.00 0.00 77 1009.8
20260901154515 60 338 2.0 5.0 0.00 0.00 0.00 78 1009.8
20260901153521 60 293 4.0 10.0 0.00 0.00 0.00 78 1009.8
20260901152548 60 270 4.0 11.0 0.00 0.00 0.00 79 1009.8
20260901151518 59 293 4.0 14.0 0.00 0.00 0.00 79 1009.9
20260901150522 59 293 4.0 13.0 0.00 0.00 0.00 79 1009.9
20260901145521 59 113 3.0 7.0 0.00 0.00 0.00 79 1009.7
20260901144515 59 135 2.0 6.0 0.00 0.00 0.00 79 1009.8
20260901143516 59 203 3.0 11.0 0.00 0.00 0.00 79 1009.9
20260901142537 59 225 3.0 11.0 0.00 0.00 0.00 79 1009.7
20260901141523 59 248 1.0 7.0 0.00 0.00 0.00 79 1009.7
20260901140523 59 270 3.0 7.0 0.00 0.00 0.00 79 1009.7
20260901135517 59 203 3.0 14.0 0.00 0.00 0.00 79 1009.6
20260901134517 59 293 3.0 7.0 0.00 0.00 0.00 79 1009.5
20260901133517 60 270 5.0 16.0 0.00 0.00 0.00 79 1009.5
20260901132517 60 293 4.0 15.0 0.00 0.00 0.00 78 1009.5
20260901131522 60 270 5.0 9.0 0.00 0.00 0.00 78 1009.3
20260901130517 60 180 3.0 14.0 0.00 0.00 0.00 77 1009.2
20260901125547 60 293 2.0 5.0 0.00 0.00 0.00 77 1008.9
20260901124523 61 270 4.0 12.0 0.00 0.00 0.00 77 1008.9
20260901123515 60 158 4.0 13.0 0.00 0.00 0.00 77 1008.8
20260901122519 61 270 4.0 11.0 0.00 0.00 0.00 76 1008.8
20260901121517 61 315 5.0 17.0 0.00 0.00 0.00 76 1008.8
20260901120522 61 248 3.0 6.0 0.00 0.00 0.00 76 1008.9
20260901115517 61 180 3.0 6.0 0.00 0.00 0.00 75 1008.9
20260901114517 62 270 4.0 12.0 0.00 0.00 0.00 74 1009.0
20260901113523 62 158 4.0 12.0 0.00 0.00 0.00 74 1008.8
20260901112517 62 270 4.0 13.0 0.00 0.00 0.00 73 1008.8
20260901111517 62 248 2.0 7.0 0.00 0.00 0.00 73 1008.9
20260901110516 63 270 2.0 7.0 0.00 0.00 0.00 72 1008.8
20260901105517 63 180 3.0 14.0 0.00 0.00 0.00 72 1008.7
20260901104622 63 338 1.0 3.0 0.00 0.00 0.00 71 1008.9
20260901103516 64 248 2.0 5.0 0.00 0.00 0.00 70 1008.8
20260901102516 64 225 2.0 10.0 0.00 0.00 0.00 70 1008.9
20260901101537 64 180 2.0 5.0 0.00 0.00 0.00 69 1008.9
20260901100517 64 225 3.0 10.0 0.00 0.00 0.00 69 1008.8
20260901095517 65 158 1.0 5.0 0.00 0.00 0.00 68 1008.8
20260901094516 65 158 2.0 7.0 0.00 0.00 0.00 67 1008.7
20260901093521 65 225 3.0 14.0 0.00 0.00 0.00 67 1008.7
20260901092523 66 248 2.0 5.0 0.00 0.00 0.00 66 1008.8
20260901091517 66 158 2.0 5.0 0.00 0.00 0.00 65 1008.6
20260901090523 67 293 4.0 8.0 0.00 0.00 0.00 64 1008.4
20260901085519 67 248 2.0 10.0 0.00 0.00 0.00 63 1008.4
20260901084540 67 270 3.0 7.0 0.00 0.00 0.00 62 1008.4
20260901083521 68 248 4.0 11.0 0.00 0.00 0.00 61 1008.6
20260901082516 67 270 3.0 7.0 0.00 0.00 0.00 63 1008.7
20260901081516 64 203 2.0 6.0 0.00 0.00 0.00 66 1008.5